Weather History for De Queen, AR

Change the Weather History Date:

Monday, September 30, 2013

  Actual Average Record
Temperature  
Mean Temperature 75 °F 68 °F  
Max Temperature 81 °F 81 °F 103 °F (1953)
Min Temperature 69 °F 56 °F 40 °F (1992)
Degree Days  
Heating Degree Days 0 1  
Month to date heating degree days 0 7  
Since 1 July heating degree days 0 9  
Cooling Degree Days 10 4  
Month to date cooling degree days 373 273  
Year to date cooling degree days 1936 1865  
Growing Degree Days 24 (Base 50)    
Moisture  
Dew Point 70 °F    
Average Humidity 87    
Maximum Humidity 100    
Minimum Humidity 74    
Precipitation  
Precipitation 0.00 in 0.10 in 1.90 in (1903)
Month to date precipitation 5.95 3.61  
Year to date precipitation 26.25 35.20  
Snow  
Snow 0.00 in - - ()
Month to date snowfall 0.0  
Since 1 July snowfall 0.0  
Since 1 September snowfall 0.0  
Snow Depth 0.00 in    
Sea Level Pressure  
Sea Level Pressure 29.88 in    
Wind  
Wind Speed 4 mph (East)    
Max Wind Speed 9 mph    
Max Gust Speed 13 mph    
Visibility 4 miles    
Events Fog    
T = Trace of Precipitation, MM = Missing Value Source: NWS Daily Summary

Daily Weather History Graph

Daily Weather History Graph

Search for Another Location

Airport:

Trip Planner

Search our weather history database for the weather conditions in past years. The results will help you decide how hot, cold, wet, or windy it might be!

Date:

Astronomy

Sep. 30, 2013 Rise Set
Actual Time 7:11 AM CDT 7:02 PM CDT
Civil Twilight 6:46 AM CDT 7:27 PM CDT
Nautical Twilight 6:17 AM CDT 7:56 PM CDT
Astronomical Twilight 5:48 AM CDT 8:25 PM CDT
Moon 2:59 AM CDT (9/30) 4:25 PM CDT (9/30)
Length of Visible Light 12h 41m
Length of Day
11h 51m
Waning Crescent, 19% of the Moon is Illuminated
Sep 30
Waning Crescent
Oct 4
New
Oct 11
First Quarter
Oct 18
Full
Oct 26
Last Quarter

Hourly Weather History & Observations

Time (CDT) Temp. Dew Point Humidity Pressure Visibility Wind Dir Wind Speed Gust Speed Precip Events Conditions
12:02 AM 69.1 °F 68.0 °F 96% 29.90 in 0.2 mi Calm Calm - N/A Fog Fog
12:14 AM 69.1 °F 68.0 °F 96% 29.90 in 1.0 mi Calm Calm - N/A   Scattered Clouds
12:19 AM 69.1 °F 69.1 °F 100% 29.90 in 3.0 mi Calm Calm - N/A   Mostly Cloudy
12:53 AM 69.1 °F 69.1 °F 100% 29.89 in 4.0 mi Calm Calm - N/A   Overcast
1:12 AM 69.1 °F 69.1 °F 100% 29.90 in 1.8 mi Calm Calm - N/A   Mostly Cloudy
1:31 AM 69.1 °F 69.1 °F 100% 29.90 in 0.8 mi Calm Calm - N/A   Mostly Cloudy
1:53 AM 70.0 °F 69.1 °F 97% 29.88 in 2.0 mi ENE 3.5 mph - N/A   Mostly Cloudy
2:01 AM 69.1 °F 69.1 °F 100% 29.89 in 1.0 mi East 3.5 mph - N/A   Mostly Cloudy
2:13 AM 70.0 °F 69.1 °F 97% 29.89 in 3.0 mi East 3.5 mph - N/A   Mostly Cloudy
2:23 AM 71.1 °F 70.0 °F 96% 29.89 in 1.8 mi ESE 4.6 mph - N/A   Overcast
2:37 AM 71.1 °F 71.1 °F 100% 29.89 in 0.8 mi East 4.6 mph - N/A   Mist
2:53 AM 71.1 °F 71.1 °F 100% 29.88 in 0.8 mi East 4.6 mph - N/A   Mist
3:19 AM 71.1 °F 71.1 °F 100% 29.88 in 1.2 mi East 4.6 mph - N/A   Overcast
3:53 AM 71.1 °F 71.1 °F 100% 29.86 in 1.5 mi East 5.8 mph - N/A   Overcast
4:01 AM 71.1 °F 71.1 °F 100% 29.88 in 3.0 mi ESE 4.6 mph - N/A   Overcast
4:50 AM 69.8 °F 69.8 °F 100% 29.88 in 4.0 mi Calm Calm - N/A   Overcast
4:53 AM 70.0 °F 70.0 °F 100% 29.86 in 4.0 mi Calm Calm - N/A   Overcast
5:53 AM 70.0 °F 70.0 °F 100% 29.86 in 4.0 mi ENE 3.5 mph - N/A   Overcast
6:11 AM 70.0 °F 70.0 °F 100% 29.88 in 3.0 mi Calm Calm - N/A   Overcast
6:35 AM 70.0 °F 70.0 °F 100% 29.89 in 4.0 mi Calm Calm - N/A   Overcast
6:53 AM 70.0 °F 70.0 °F 100% 29.87 in 4.0 mi Calm Calm - N/A   Overcast
7:14 AM 71.1 °F 69.1 °F 93% 29.88 in 4.0 mi Calm Calm - N/A   Overcast
7:28 AM 71.1 °F 70.0 °F 96% 29.88 in 2.5 mi Calm Calm - N/A   Overcast
7:42 AM 71.1 °F 70.0 °F 96% 29.88 in 3.0 mi East 3.5 mph - N/A   Overcast
7:53 AM 71.1 °F 70.0 °F 96% 29.87 in 3.0 mi ENE 5.8 mph - N/A   Overcast
8:07 AM 71.1 °F 70.0 °F 96% 29.89 in 3.0 mi ENE 5.8 mph - N/A   Overcast
8:11 AM 71.1 °F 70.0 °F 96% 29.89 in 2.5 mi East 4.6 mph - N/A   Overcast
8:25 AM 71.1 °F 71.1 °F 100% 29.89 in 1.8 mi East 4.6 mph - N/A   Overcast
8:35 AM 71.1 °F 71.1 °F 100% 29.90 in 2.5 mi ENE 4.6 mph - N/A   Overcast
8:45 AM 71.1 °F 70.0 °F 96% 29.90 in 3.0 mi East 4.6 mph - N/A   Overcast
8:53 AM 71.1 °F 71.1 °F 100% 29.89 in 3.0 mi East 4.6 mph - N/A   Overcast
9:21 AM 72.0 °F 70.0 °F 93% 29.90 in 6.0 mi ENE 4.6 mph - N/A   Overcast
9:53 AM 72.0 °F 71.1 °F 97% 29.89 in 4.0 mi ENE 4.6 mph - N/A   Overcast
10:49 AM 75.2 °F 71.6 °F 89% 29.90 in 6.0 mi East 5.8 mph - N/A   Overcast
10:53 AM 75.0 °F 71.1 °F 87% 29.89 in 7.0 mi East 5.8 mph - N/A   Overcast
11:53 AM 75.9 °F 71.1 °F 85% 29.89 in 7.0 mi East 6.9 mph - N/A   Overcast
12:42 PM 77.0 °F 71.1 °F 82% 29.90 in 7.0 mi ESE 5.8 mph - N/A   Overcast
12:53 PM 77.0 °F 70.0 °F 79% 29.88 in 8.0 mi East 6.9 mph - N/A   Overcast
1:53 PM 79.0 °F 70.0 °F 74% 29.86 in 10.0 mi ESE 4.6 mph - N/A   Overcast
2:53 PM 79.0 °F 70.0 °F 74% 29.84 in 9.0 mi Variable 6.9 mph - N/A   Overcast
3:53 PM 79.0 °F 71.1 °F 77% 29.83 in 8.0 mi ESE 8.1 mph - N/A   Overcast
4:53 PM 79.0 °F 71.1 °F 77% 29.82 in 8.0 mi ESE 5.8 mph - N/A   Overcast
5:53 PM 78.1 °F 71.1 °F 79% 29.82 in 10.0 mi East 5.8 mph - N/A   Overcast
6:53 PM 77.0 °F 71.1 °F 82% 29.84 in 9.0 mi East 4.6 mph - N/A   Overcast
7:53 PM 73.0 °F 71.1 °F 93% 29.85 in 9.0 mi Calm Calm - N/A   Clear
8:29 PM 71.1 °F 70.0 °F 96% 29.87 in 2.0 mi Calm Calm - N/A   Partly Cloudy
8:38 PM 72.0 °F 71.1 °F 97% 29.87 in 6.0 mi Calm Calm - N/A   Mostly Cloudy
8:53 PM 72.0 °F 71.1 °F 97% 29.86 in 6.0 mi Calm Calm - N/A   Mostly Cloudy
9:53 PM 72.0 °F 71.1 °F 97% 29.87 in 7.0 mi Calm Calm - N/A   Partly Cloudy
10:53 PM 72.0 °F 71.1 °F 97% 29.87 in 7.0 mi ENE 3.5 mph - N/A   Overcast
11:53 PM 71.1 °F 70.0 °F 96% 29.87 in 5.0 mi ENE 3.5 mph - N/A   Clear